Flag for Uruguay Weather past 2 weeks in Canelones, Uruguay

Now
66 °F

Passing clouds.


Feels Like: 66 °F
Forecast: 50 / 78 °F
Wind: 5 mph from Southeast

Location: Carrasco

Current Time: Mar 31, 2015 at 11:10:43 PM

Latest Report: Mar 31, 2015 at 10:00 PM


Visibility: N/A

Pressure: 30.04 "Hg

Humidity: 68%

Dew point: 55 °F

Location of CanelonesLocation

Historic Weather in Canelones — Graph

°F

Canelones temperature yesterday

Maximum temperature yesterday: 79 °F (at 11:00 AM)
Minimum temperature yesterday: 63 °F (at 6:00 AM)
Average temperature yesterday: 70 °F

Past Weeks' High & Low Weather Summary

 TemperatureHumidityPressure
High88 °F (Mar 20, 1:00 PM)100% (Mar 25, 7:00 AM)30.21 "Hg (Mar 25, 7:00 AM)
Low50 °F (Mar 28, 7:00 AM)37% (Mar 18, 1:00 PM)29.74 "Hg (Mar 20, 2:00 PM)
Average67 °F72%30.03 "Hg
* Reported Mar 17 3:00 AM — Mar 31 10:00 PM, Canelones, Weather by CustomWeather, © 2015

Note: Actual official high and low records may vary slightly from our data, if they occured in-between our weather recording intervals... More about our weather records

Advertising

Canelones weather history for previous 24 hours

 ConditionsComfort  
Time TempWeatherWind HumidityBarometerVisibility
10:00 PM
Tue, Mar 31
66 °FPassing clouds.5 mph68%30.04 "HgN/A
9:00 PM66 °FPassing clouds.6 mph68%30.04 "HgN/A
8:00 PM66 °FPassing clouds.8 mph68%30.01 "HgN/A
7:00 PM66 °FPassing clouds.9 mph73%29.98 "HgN/A
6:00 PM70 °FPassing clouds.10 mph69%29.95 "HgN/A
5:00 PM70 °FPartly sunny.13 mph73%29.95 "HgN/A
4:00 PM72 °FPartly sunny.12 mph69%29.92 "HgN/A
3:00 PM72 °FPartly sunny.13 mph69%29.92 "HgN/A
2:00 PM75 °FPartly sunny.14 mph65%29.92 "HgN/A
1:00 PM73 °FPartly sunny.12 mph74%29.92 "HgN/A
12:00 PM73 °FPartly sunny.15 mph69%29.92 "HgN/A
11:00 AM72 °FBroken clouds.15 mph78%29.92 "HgN/A
10:00 AM70 °FPartly sunny.5 mph88%29.89 "HgN/A
9:00 AM68 °FPartly sunny.5 mph88%29.89 "HgN/A
8:00 AM64 °FPartly sunny.2 mph94%29.89 "HgN/A
7:00 AM63 °FOvercast.5 mph94%29.89 "HgN/A
6:00 AM63 °FSunny.3 mph88%29.86 "Hg10 mi
5:00 AM63 °FClear.5 mph88%29.86 "Hg10 mi
4:00 AM63 °FClear.3 mph88%29.86 "Hg10 mi
3:00 AM63 °FClear.3 mph88%29.86 "Hg10 mi
2:00 AM63 °FClear.3 mph88%29.86 "Hg10 mi
1:00 AM64 °FClear.3 mph88%29.86 "Hg10 mi
12:00 AM64 °FClear.5 mph88%29.86 "Hg10 mi
11:00 PM
Mon, Mar 30
66 °FClear.No wind78%29.89 "Hg10 mi
Weather by CustomWeather, © 2015

See weather overviewHow to use our weather pages